CZ-4C R/B, 51285

Orbit data source: Space-Track

CZ-4C R/B, 51285 is space debris in SSO originally from a launch on Tue, 25 Jan 2022 UTC launched from the Jiuquan Satellite Launch Center, China (JSC). Debris objects in space refer to the collection of defunct objects orbiting the Earth. Examples of debris include non-operational satellites, rocket bodies, and fragments generated from explosions, collisions, or faulty payload assembly.

Loading next visibility...
Identifier
51285, 2022-007B
Orbit
SSO
Last TLE update
10 hours ago
Origin
Manufacturer
SAST
Mission
Spacecraft
Bus & Motor
CZ-4 STAGE 3, Unknown motor
Mass
~1,000 kg wet, ~1,000 kg dry
Launch date (UTC)
2022-01-25 (3 years ago)
Launch vehicle
Unknown
Launch site
Jiuquan Satellite Launch Center, China (JSC)
Object type
Payload
Rocket body
Debris
Shape & HBR
Cyl, 4.932 m
Radar Cross Section
14.536 m², Large (>1 m²)

Expand to show TLE details & history

TLE from 10 hours ago
0 CZ-4C R/B
1 51285U 22007B   25182.47398099  .00025991  00000-0  31042-3 0  9998
2 51285  97.7058 266.2774 0049365 312.8527  46.8586 15.59488613191376
Epoch: 2025-07-01T11:22Z
TLE epoch observation values (Epoch: 2025-07-01T11:22:31.957Z)
Latitude
-0.00003°
Longitude
175.87533°
Altitude
369.51 km
Speed
7.701 km/s
True Right ascension
17h 45m 06s
True Declination
0° 00' 00"
Sunlit
Object was in full shadow at epoch
Visualization orbit readout
Latitude
-78.14599°
Longitude
-43.52668°
Altitude
395.508 km
Speed
7.684 km/s
Apparent Right ascension
22h 26m 34s
Apparent Declination
-64° 04' 22"
Sunlit
Object is in daylight
Visualization observer readout
Local Sidereal Time
09:24:21
Azimuth
195.613° SSW
Elevation
-64.178°
Doppler factor
1
Orbital elements
Apogee altitude
419.454 km
Perigee altitude
352.671 km
Semi-major axis
6,764.2 km
Eccentricity
0.00494
Inclination
97.7058°
RAAN
266.2774°
Arg. of periapsis
312.8527°
True anomaly
Unknown
Mean anomaly
46.8586°
Eccentric anomaly
Unknown
Mean motion
3.90138 °/min
Orbital period
92.27 mins
BSTAR
0.00031042
Loading maneuver chart data...
Loading SW <> Apogee altitude chart data...
Loading historical data...
Loading historical data...
Loading historical data...
Loading historical data...
Loading historical data...
Loading historical data...
Loading historical data...
Other satellites on launch #7 in the year 2022 (2022-01-25 UTC)

CZ-4C R/B Visibility forecast

Observer location: undefined°, undefined°

Span
Click to sort rows by Start time (UTC) header in descending order
Start Az.
Max El. time (UTC)
Max El. Az.
Max El.
End time (UTC)
End Az.
5 mins2025-07-02 05:59:03.375Z192.894° SSW2025-07-02 06:01:03.375Z241.713° WSW31.303°2025-07-02 06:04:03.375Z330.648° NNW
4 mins2025-07-02 18:45:03.375Z346.579° N2025-07-02 18:46:03.375Z301.76° NW38.709°2025-07-02 18:49:03.375Z208.091° SW
|